Flag Weather past 2 weeks in Timmins, Ontario, Canada

Now
5 °F

Passing clouds.


Feels Like: -8 °F
Forecast: N/A
Wind: 8 mph from South

Location: Timmins

Current Time: Nov 28, 2014 at 3:52:00 PM

Latest Report: Nov 28, 2014 at 3:00 PM


Visibility: 15 mi

Pressure: 30.16 "Hg

Humidity: 72%

Dew point: -2 °F

Location of TimminsLocation

Historic Weather in Timmins — Graph

°F

Timmins temperature yesterday

Maximum temperature yesterday: 9 °F (at 12:00 AM)
Minimum temperature yesterday: -6 °F (at 11:00 PM)
Average temperature yesterday: 3 °F

Past Weeks' High & Low Weather Summary

 TemperatureHumidityPressure
High39 °F (Nov 23, 7:00 PM)100% (Nov 16, 9:00 PM)30.31 "Hg (Nov 16, 9:00 PM)
Low-20 °F (Nov 28, 6:00 AM)63% (Nov 14, 1:00 PM)28.83 "Hg (Nov 24, 1:00 PM)
Average16 °F87%29.84 "Hg
* Reported Nov 13 2:04 PM — Nov 28 2:00 PM, Timmins, Weather by CustomWeather, © 2014

Note: Actual official high and low records may vary slightly from our data, if they occured in-between our weather recording intervals... More about our weather records

Advertising

Timmins weather history for previous 24 hours

 ConditionsComfort  
Time TempWeatherWind HumidityBarometerVisibility
2:00 PM
Nov 28
5 °FPassing clouds.7 mph66%30.18 "Hg15 mi
1:00 PM1 °FPassing clouds.6 mph78%30.20 "Hg15 mi
12:00 PM-2 °FPassing clouds.6 mph84%30.22 "Hg15 mi
11:00 AM-6 °FScattered clouds.5 mph84%30.26 "Hg15 mi
10:00 AM-11 °FScattered clouds.3 mph84%30.27 "Hg15 mi
9:00 AM-17 °FSnow flurries. Scattered clouds.7 mph83%30.27 "Hg10 mi
8:00 AM-20 °FSnow flurries. Passing clouds.5 mph75%30.28 "Hg10 mi
7:00 AM-20 °FSnow flurries. Clear.3 mph75%30.29 "Hg6 mi
6:00 AM-20 °FSnow flurries. Clear.3 mph75%30.30 "Hg6 mi
5:00 AM-18 °FClear.No wind83%30.30 "Hg15 mi
4:00 AM-15 °FPassing clouds.5 mph83%30.31 "Hg15 mi
3:00 AM-15 °FPassing clouds.6 mph83%30.31 "Hg15 mi
2:00 AM-11 °FPassing clouds.6 mph76%30.29 "Hg15 mi
1:51 AM-11 °FPassing clouds.5 mph84%30.28 "Hg15 mi
1:00 AM-9 °FLight snow. Overcast.3 mph84%30.29 "Hg15 mi
12:00 AM-8 °FLight snow. Passing clouds.5 mph84%30.30 "Hg15 mi
11:00 PM
Nov 27
-6 °FLight snow. Passing clouds.6 mph84%30.29 "Hg15 mi
10:00 PM-4 °FLight snow. Passing clouds.6 mph77%30.29 "Hg10 mi
9:00 PM-2 °FLight snow. Overcast.5 mph77%30.29 "Hg4 mi
8:00 PM0 °FLight snow. Mostly cloudy.6 mph78%30.29 "Hg3 mi
7:00 PM1 °FLight snow. Mostly cloudy.8 mph78%30.29 "Hg3 mi
6:00 PM0 °FLight snow. Mostly cloudy.6 mph84%30.28 "Hg3 mi
5:00 PM1 °FLight snow. Mostly cloudy.8 mph78%30.27 "Hg3 mi
4:04 PM3 °FLight snow. More clouds than sun.6 mph78%30.26 "Hg2 mi
3:51 PM3 °FLight snow. Partly sunny.7 mph78%30.25 "Hg5 mi
3:00 PM3 °FLight snow. Mostly cloudy.10 mph78%30.24 "Hg1 mi
Weather by CustomWeather, © 2014

See weather overviewHow to use our weather pages